Helicity
219 146 19 102 44 12 140 -79 130 222 189 57 46 40 71 130 145 165 173 188 188 194 205 235 254 261 263 254 244 234 234 213 203 190 183 165 141 124 122 138 135 125 114 108
112 6 53 8 23 98 127 158 209 148 171 56 65 106 67 67 114 125 154 172 192 207 219 218 246 271 273 257 227 208 200 202 190 192 168 153 130 132 141 140 128 112 113 105
87 94 99 76 129 19 104 145 84 176 62 38 59 47 21 30 56 94 152 196 214 214 209 242 264 266 239 215 196 194 197 194 189 171 160 146 142 143 137 129 111 103 100 105
169 158 78 105 47 32 59 30 38 38 84 69 67 105 104 57 35 57 114 158 200 230 254 262 269 268 262 215 189 190 196 189 178 168 162 148 140 135 126 106 105 106 101 96
71 73 68 130 72 53 42 61 55 32 56 95 148 160 126 91 67 140 204 218 246 261 303 301 291 272 240 196 189 197 186 185 173 161 149 139 145 147 103 103 105 100 96 98
32 43 34 42 65 44 42 76 48 56 92 87 129 130 84 116 152 260 305 304 328 311 315 317 261 249 230 204 198 186 178 171 156 146 149 151 134 113 95 100 87 101 104 111
-14 17 53 37 42 31 63 67 62 48 72 137 147 99 185 202 285 309 312 318 319 304 303 277 259 252 232 192 183 178 177 163 156 155 147 122 108 100 97 92 96 106 117 121
9 12 46 50 58 44 39 50 42 43 72 185 217 261 263 249 287 310 348 337 316 332 287 241 227 230 204 205 176 170 164 167 166 148 125 126 122 104 100 102 112 119 124 117
17 6 29 63 66 54 37 27 13 35 84 191 257 245 234 254 283 302 312 307 261 272 248 202 195 202 206 153 160 167 171 179 158 145 141 123 106 96 103 115 124 122 112 123
36 25 1 50 54 75 59 42 40 48 82 149 239 207 236 251 253 246 219 221 205 220 203 185 168 167 167 156 161 170 181 168 158 147 125 106 101 101 115 122 122 117 127 129
10 -39 -19 45 44 54 77 78 98 94 84 125 193 163 163 167 161 147 134 132 142 157 164 152 158 177 166 160 156 175 171 156 135 114 107 104 110 106 115 106 113 131 131 132
86 37 50 65 76 86 89 66 77 114 123 113 118 125 125 129 106 114 134 125 146 139 150 141 161 169 150 141 147 159 153 128 109 111 108 112 122 125 105 106 102 102 110 135
65 62 101 37 140 102 97 76 91 115 103 131 115 125 114 131 107 114 116 104 98 91 111 129 151 156 136 138 148 146 131 114 112 114 117 120 124 129 135 118 86 91 109 130
84 126 127 104 73 110 168 166 195 212 188 161 149 132 123 139 114 113 80 63 90 117 127 135 146 146 138 145 143 132 123 120 117 113 115 119 127 130 135 131 120 121 121 101
129 31 60 133 168 168 192 216 244 222 199 201 143 139 135 130 119 99 83 107 137 143 135 139 147 139 131 131 135 131 125 120 117 116 120 127 135 141 142 131 130 135 134 111
106 122 116 161 162 175 220 225 256 204 193 171 160 144 132 142 130 112 107 116 133 107 120 137 136 124 126 131 131 128 127 127 122 127 127 132 138 136 132 138 139 137 130 118
158 123 151 156 145 155 173 180 191 172 174 170 152 143 160 155 138 113 96 91 123 134 123 129 138 134 131 124 128 132 130 117 116 128 131 132 128 132 144 144 141 132 120 104
97 115 108 182 197 229 229 229 220 196 179 154 145 141 131 102 82 87 99 134 168 174 155 147 142 128 126 131 137 130 116 116 119 126 126 126 132 145 147 150 136 122 114 103
145 200 211 240 229 248 230 228 212 193 168 139 126 101 78 82 82 100 122 150 157 166 134 127 134 139 146 142 135 122 118 120 124 126 130 131 153 150 149 133 118 110 112 105
245 246 265 257 218 227 223 210 212 198 145 137 127 108 108 95 105 130 146 161 125 122 122 121 138 146 137 113 132 123 126 129 126 130 138 151 147 144 131 102 101 107 103 100
227 263 301 295 285 233 232 209 190 155 117 101 105 101 111 106 123 143 169 184 147 133 128 139 133 117 104 129 130 129 131 127 131 136 141 145 137 127 114 106 105 103 100 89
220 274 299 322 299 255 244 209 178 142 117 123 132 130 139 134 147 180 168 150 117 134 131 127 109 105 120 143 128 127 124 131 135 142 147 137 126 122 115 110 109 99 86 -38
256 264 275 265 248 238 213 186 147 121 119 106 105 110 120 119 141 171 157 116 127 131 122 108 111 125 150 132 123 123 131 137 140 136 130 128 127 129 119 111 95 88 -40 -31
267 251 288 248 241 223 215 158 163 156 152 143 136 125 142 173 208 177 153 134 135 126 115 115 129 142 140 117 118 131 141 140 129 123 125 103 124 116 113 100 86 -35 -28 -1
242 244 218 214 198 176 159 146 185 176 183 181 176 167 152 115 112 105 116 115 130 125 121 133 137 130 115 121 134 137 132 120 113 121 118 116 110 110 100 87 -23 -30 3 39
213 184 169 155 138 110 111 112 140 119 139 162 172 164 168 157 134 119 114 122 117 129 126 116 107 115 123 127 128 124 114 109 110 110 100 110 103 98 83 -4 -23 12 49 99
253 205 211 199 149 111 89 92 105 85 100 128 161 131 130 119 119 120 120 117 123 124 115 110 117 121 118 121 121 109 102 113 99 102 106 105 99 96 47 -21 26 64 117 140
Wind_Speed
46 57 56 69 76 82 83 70 74 67 69 72 41 36 22 19 20 22 22 21 22 21 19 17 14 11 8 5 2 3 9 16 24 30 36 41 47 51 56 61 65 68 71 75
27 47 61 67 67 80 77 73 75 58 39 36 34 23 14 27 30 31 27 21 17 17 17 17 15 11 8 4 1 5 12 19 25 32 38 43 49 54 59 64 67 70 73 75
20 26 48 45 65 63 74 71 49 33 31 20 26 21 10 19 26 26 22 19 17 17 17 13 12 11 8 4 1 7 14 21 27 33 40 47 52 57 62 66 69 71 74 77
27 29 20 25 28 45 41 33 30 29 22 19 20 24 21 25 12 11 9 8 8 10 8 8 9 7 6 4 4 10 16 23 29 36 43 48 53 58 63 66 69 72 75 78
25 23 33 27 28 28 36 45 45 58 38 25 11 23 26 30 21 8 3 4 5 7 9 9 9 9 8 4 7 13 18 25 32 38 43 50 57 62 64 66 69 72 75 79
29 28 26 27 29 32 31 47 38 42 35 12 15 12 29 30 16 5 2 2 7 8 10 11 11 11 7 6 10 15 21 27 33 39 46 53 58 62 63 66 70 74 79 82
35 32 36 37 31 29 31 39 38 40 33 13 14 40 13 11 10 6 5 9 11 12 12 12 12 9 8 10 13 18 24 29 36 42 49 53 57 61 65 70 74 79 84 84
27 33 35 34 32 25 28 27 28 30 24 10 8 3 5 7 8 10 13 13 13 14 13 12 9 9 11 13 17 22 27 34 39 44 50 53 60 64 68 73 81 85 86 86
10 26 33 34 31 25 27 26 25 17 12 13 15 13 12 13 14 14 16 17 17 18 17 14 12 12 13 16 20 25 30 36 41 46 50 56 62 68 75 79 83 86 86 89
43 45 47 33 29 28 26 20 18 18 19 20 21 16 16 15 17 18 19 20 20 19 17 15 15 16 17 19 23 28 32 38 43 48 53 59 62 69 76 81 83 85 89 92
50 46 31 35 35 26 18 17 17 15 17 23 24 21 23 24 25 24 24 23 21 19 17 16 16 18 21 23 26 30 35 40 46 51 57 63 66 72 75 74 78 85 87 88
37 26 26 37 9 10 13 15 16 20 20 16 25 30 28 26 25 24 23 22 20 19 18 18 18 21 24 27 29 33 39 44 50 56 61 66 72 75 70 72 75 76 80 83
43 31 32 19 10 9 12 16 11 15 21 25 20 24 22 22 21 23 23 23 20 18 17 18 20 23 26 29 33 37 42 48 54 60 65 70 73 77 83 77 74 77 80 83
14 13 16 9 7 7 10 8 6 10 15 19 21 20 19 19 20 20 20 21 21 19 18 20 22 25 28 31 35 40 46 52 58 63 66 69 72 76 79 83 86 85 80 81
16 25 10 15 17 13 10 10 9 11 15 16 18 19 19 18 19 19 21 21 21 20 21 22 25 27 30 33 38 44 50 56 61 64 67 69 72 75 77 79 83 85 84 78
10 10 17 21 20 16 12 5 8 9 12 14 15 17 18 19 20 21 22 21 19 20 22 25 27 28 32 37 42 47 53 59 63 66 69 72 74 77 78 81 83 83 82 79
11 8 9 11 16 13 8 8 11 12 12 13 14 16 17 19 20 21 21 22 23 24 25 26 29 32 36 40 45 51 57 61 65 67 70 73 76 77 79 79 80 79 75 72
11 7 6 12 15 14 9 6 7 10 11 13 15 16 16 17 18 20 21 23 26 29 30 30 32 35 39 44 48 53 58 63 66 69 71 75 77 78 79 77 76 74 72 69
15 4 2 2 4 6 6 6 7 11 13 14 15 15 17 18 19 21 23 25 27 29 31 32 35 39 43 48 51 55 61 65 69 71 73 75 78 78 76 75 73 71 69 65
9 4 3 6 6 11 9 7 10 11 13 15 17 18 19 20 21 23 25 29 31 30 30 35 38 43 47 51 54 60 63 67 70 73 75 77 78 77 75 72 71 68 64 58
2 6 9 9 9 7 10 11 13 13 15 16 17 18 20 21 23 24 27 31 34 33 35 38 41 45 49 52 58 62 64 68 72 75 77 78 78 76 72 70 67 63 58 44
10 13 14 14 14 12 12 14 15 16 16 17 19 20 22 24 25 30 33 31 32 35 39 41 44 48 51 56 60 63 67 70 73 75 76 76 74 72 71 67 63 58 44 45
14 17 18 18 18 17 16 16 16 17 18 18 19 21 23 25 27 29 32 34 36 39 41 45 47 50 54 59 62 65 69 72 75 76 75 72 69 67 65 62 58 46 43 45
21 19 20 20 20 20 18 16 17 18 19 21 23 23 24 28 34 36 34 35 38 41 45 49 52 55 58 60 64 67 71 74 75 73 69 68 65 62 59 56 47 38 44 40
21 22 22 19 17 15 16 17 18 19 21 23 26 28 29 32 33 32 35 39 41 44 48 52 55 57 60 64 67 70 72 72 71 68 67 63 61 60 56 47 30 44 41 38
22 19 16 13 15 15 16 15 17 18 20 24 28 30 32 34 34 35 38 41 44 47 51 54 57 60 64 67 69 71 70 70 68 65 62 60 58 56 47 22 44 41 37 34
16 16 15 14 13 14 15 16 17 18 20 23 26 29 31 34 36 38 41 44 47 50 53 56 60 64 67 68 69 69 68 66 64 61 58 57 54 49 17 43 40 36 34 31
Wind_Direction
225 221 202 172 171 175 180 184 193 206 200 196 213 214 206 181 167 159 159 160 160 162 163 167 171 174 179 184 197 338 340 338 337 340 342 343 342 342 342 341 341 341 341 341
211 172 180 182 174 188 188 192 188 196 211 220 217 211 174 133 136 138 143 149 158 159 163 166 170 174 177 186 206 341 335 336 340 340 341 341 341 341 341 341 342 342 341 342
218 191 144 181 191 172 161 168 194 212 222 214 211 215 178 133 137 140 142 147 154 158 159 164 167 165 169 162 25 343 339 338 339 341 340 340 340 340 340 341 342 342 342 342
204 196 235 244 239 227 237 244 249 234 235 235 243 243 249 251 147 158 175 177 173 162 159 154 146 144 129 105 15 344 339 341 341 341 340 340 341 342 341 342 342 342 342 342
230 276 218 254 262 270 256 244 243 228 247 259 263 256 262 268 272 268 230 153 150 145 137 129 132 126 114 56 1 347 343 342 343 342 342 342 341 341 342 342 342 343 343 342
260 260 263 255 268 267 262 234 251 256 258 252 258 252 266 275 290 311 328 110 117 108 108 112 114 112 86 26 358 348 346 344 345 344 343 342 342 342 343 343 342 342 342 342
254 272 254 251 271 270 253 249 268 266 262 241 247 266 280 303 322 356 66 95 95 95 101 105 103 85 39 14 358 354 352 349 346 345 343 344 344 345 344 343 343 342 342 343
304 282 271 261 271 292 269 276 284 276 276 259 266 349 19 35 49 70 84 84 85 88 88 83 70 49 30 14 6 358 352 349 347 346 346 346 345 345 345 344 342 342 342 342
67 324 285 261 268 283 287 291 307 348 35 93 102 90 75 66 67 68 77 78 80 87 82 65 49 42 28 12 3 357 354 351 349 349 349 348 346 345 343 344 343 343 343 343
265 261 225 270 274 279 286 322 355 38 66 86 97 89 80 71 72 74 74 78 79 78 71 55 39 28 22 15 6 359 354 352 351 349 348 348 348 347 345 345 344 344 343 342
254 250 285 266 268 286 332 25 35 28 54 80 88 85 87 86 84 82 81 80 77 71 60 46 37 27 16 8 4 358 355 353 350 349 347 347 348 347 347 348 346 344 344 344
270 282 299 270 313 24 45 56 61 71 68 60 81 91 89 82 79 79 74 75 67 59 54 45 33 19 11 6 2 358 353 350 348 347 347 347 346 346 350 349 349 348 347 346
263 303 280 288 316 359 59 72 61 72 80 84 67 78 75 74 67 72 73 75 69 63 49 37 24 14 8 3 1 358 352 350 348 347 346 346 347 346 345 348 350 350 348 347
318 353 333 322 330 74 81 71 63 53 54 64 71 64 59 55 57 60 63 72 68 55 39 27 18 9 6 4 1 356 353 350 348 348 348 347 347 347 347 347 347 348 349 348
296 296 34 79 88 89 95 101 78 59 60 53 54 59 58 52 49 49 60 64 57 42 29 19 10 6 6 3 358 354 351 349 349 348 348 348 348 348 348 348 347 346 347 350
329 22 80 97 101 100 104 97 82 61 54 50 45 41 43 44 42 47 55 57 45 30 16 10 6 7 4 360 356 353 352 350 349 348 348 348 348 349 349 348 347 347 348 350
70 41 77 97 113 112 111 94 90 82 61 47 40 39 43 42 38 37 36 30 24 17 16 11 7 6 1 358 355 352 350 349 349 349 349 348 348 349 349 348 348 348 349 352
336 38 82 120 128 120 103 86 73 61 52 49 47 48 45 41 37 32 26 23 19 12 9 10 7 2 359 357 355 353 350 349 349 349 349 348 348 348 348 349 348 349 350 352
302 326 320 126 120 108 103 88 58 57 58 55 54 44 35 35 36 30 25 20 12 6 4 7 4 0 358 357 354 352 349 349 349 349 349 349 348 349 349 349 349 350 351 354
297 314 112 108 105 112 102 75 72 62 52 58 53 48 43 35 30 25 19 8 3 6 11 4 3 0 358 354 353 351 351 350 349 349 349 348 348 349 349 350 351 352 354 357
149 118 117 110 103 81 82 88 84 74 65 58 51 44 37 31 26 22 14 7 5 9 6 4 2 359 356 355 353 352 352 350 350 349 348 348 348 349 350 351 352 354 356 2
109 117 116 110 103 85 69 79 75 70 59 48 42 39 33 23 19 9 4 7 8 6 3 2 360 357 356 355 354 352 351 351 350 349 349 349 349 350 351 353 354 356 1 285
105 107 107 107 104 89 77 69 61 59 55 47 38 29 21 17 13 10 4 5 6 4 2 358 359 358 356 355 354 352 351 350 349 349 349 350 351 352 353 355 357 2 284 284
105 102 102 99 93 91 82 60 54 45 38 30 25 24 22 14 5 6 13 9 5 1 359 357 356 356 355 354 353 352 351 350 349 349 350 351 353 354 356 358 2 283 282 277
101 104 106 101 93 80 75 66 53 40 35 26 19 13 12 6 3 8 6 3 2 359 358 357 356 356 355 354 352 351 350 350 350 351 352 353 355 356 358 3 281 283 278 273
107 103 94 81 84 81 74 61 50 39 33 24 16 14 12 11 12 10 5 2 0 359 357 357 356 355 354 352 351 350 350 351 352 353 354 355 357 358 4 288 282 277 271 266
92 92 86 75 61 63 60 58 51 36 26 21 17 13 13 11 8 5 3 1 360 359 357 356 355 353 352 351 350 351 351 352 354 355 356 357 359 2 348 281 274 269 264 260